AirNav   Jet Aviation Boston
 
 831 users online  

M95 Richard Arthur Field Airport
Fayette, Alabama, USA

GOING TO FAYETTE?


FAA INFORMATION EFFECTIVE 29 MARCH 2018

Location

FAA Identifier: M95
Lat/Long: 33-42-32.7789N / 087-48-54.7521W
33-42.546315N / 087-48.912535W
33.7091053 / -87.8152089
(estimated)
Elevation: 357.1 ft. / 108.8 m (surveyed)
Variation: 00E (1990)
From city: 3 miles NE of FAYETTE, AL
Time zone: UTC -5 (UTC -6 during Standard Time)
Zip code: 35555

Airport Operations

Airport use: Open to the public
Activation date: 10/1946
Control tower: no
ARTCC: MEMPHIS CENTER
FSS: ANNISTON FLIGHT SERVICE STATION
NOTAMs facility: ANB (NOTAM-D service available)
Attendance: MON-FRI 0800-1200
Wind indicator: lighted
Segmented circle: yes
Lights: ACTVT MIRL RY 18/36, PAPI RYS 18 & 36 AND & TWY LGTS - CTAF.
Beacon: white-green (lighted land airport)
Operates sunset to sunrise.

Airport Communications

CTAF/UNICOM: 122.8
COLUMBUS APPROACH: 126.075
COLUMBUS DEPARTURE: 126.075
  • APCH/DEP SERVICE PRVDD BY MEMPHIS ARTCC ON FREQS 127.1/269.4 (COLUMBUS RCAG) WHEN COLUMBUS APCH CTL CLSD.

Nearby radio navigation aids

VOR radial/distance  VOR name  Freq  Var
LDKr330/30.4CRIMSON VORTAC117.8003E
HABr160/31.0HAMILTON VORTAC110.4002E
CBMr083/31.4CALEDONIA VORTAC115.2000E
IGBr065/37.4BIGBEE VORTAC116.2004E

Airport Services

Fuel available: 100LL JET-A
Parking: tiedowns
Bottled oxygen: NONE
Bulk oxygen: NONE

Runway Information

Runway 18/36

Dimensions: 5008 x 80 ft. / 1526 x 24 m
Surface: asphalt, in fair condition
Weight bearing capacity: 
Single wheel: 15.0
Runway edge lights: medium intensity
RUNWAY 18  RUNWAY 36
Latitude: 33-42.958767N33-42.133863N
Longitude: 087-48.890148W087-48.934920W
Elevation: 357.1 ft.330.6 ft.
Gradient: 0.7%0.7%
Traffic pattern: leftleft
Runway heading: 183003
Markings: nonprecision, in fair conditionnonprecision, in fair condition
Visual slope indicator: 2-light PAPI on left (3.00 degrees glide path)2-light PAPI on left (3.00 degrees glide path)
Touchdown point: yes, no lightsyes, no lights
Obstructions: 83 ft. trees, 1299 ft. from runway, 178 ft. left of centerline, 13:1 slope to clear29 ft. trees, 1210 ft. from runway, 184 ft. right of centerline, 34:1 slope to clear

Airport Ownership and Management from official FAA records

Ownership: Publicly-owned
Owner: CITY OF FAYETTE
203 TEMPLE AVE NORTH
FAYETTE, AL 35555
Phone 205-932-5367
Manager: JIM HAYRES
100 21ST STREET NORTH EAST
FAYETTE, AL 35555
Phone 205-932-3819

Airport Operational Statistics

Aircraft based on the field: 10
Single engine airplanes: 10
    
Aircraft operations: avg 42/day *
85% transient general aviation
15% local general aviation
* for 12-month period ending 24 February 2017

Additional Remarks

TWY LGTS FOR TWY TURNOFF ONLY.
DEER ON & INVOF ARPT.

Instrument Procedures

NOTE: All procedures below are presented as PDF files. If you need a reader for these files, you should download the free Adobe Reader.

NOT FOR NAVIGATION. Please procure official charts for flight.
FAA instrument procedures published for use from 29 March 2018 at 0901Z to 26 April 2018 at 0900Z.

 
IAPs - Instrument Approach Procedures
RNAV (GPS) RWY 18   download (205KB)
RNAV (GPS) RWY 36   download (209KB)
NOTE: Special Take-Off Minimums/Departure Procedures apply   download (189KB)

Other nearby airports with instrument procedures:

M55 - Lamar County Airport (17 nm NW)
3M8 - North Pickens Airport (22 nm SW)
KHAB - Marion County-Rankin Fite Airport (26 nm N)
KJFX - Walker County Airport-Bevill Field (28 nm NE)
KTCL - Tuscaloosa Regional Airport (31 nm S)
 
Loc | Ops | Rwys | IFR | FBO | Links
Com | Nav | Svcs | Stats | Notes

AirNav Hotels Sweepstakes
 
Area around M95 (Richard Arthur Field Airport)
 
Road maps at: MapQuest Bing Google
 
Aerial photo
WARNING: Photo may not be current or correct
Aerial photo of M95 (Richard Arthur Field Airport)
Taken late October 2007

Do you have a better or more recent aerial photo of Richard Arthur Field Airport that you would like to share? If so, please send us your photo.

 
Sectional chart

 
Airport distance calculator
Flying to Richard Arthur Field Airport? Find the distance to fly.

From to M95

Sunrise and sunset
Times for 23-Apr-2018
 Local
(UTC-5)
 Zulu
(UTC)
Morning civil twilight05:4610:46
Sunrise06:1211:12
Sunset19:2700:27
Evening civil twilight19:5300:53

Current date and time
Zulu (UTC)  24-Apr-2018 03:05:11
Local (UTC-5)  23-Apr-2018 22:05:11
 
METAR
KJFX 
28nm NE 
240255Z AUTO 00000KT 10SM 16/14 A2992 RMK AO2 PWINO
KTCL 
31nm S 
240253Z AUTO 29005KT 10SM OVC060 16/13 A2993 RMK AO2 SLP135 T01610128 51017
KCBM 
32nm W 
240246Z AUTO 27004KT 10SM BKN035 OVC060 15/13 A2993 RMK AO2 SLP137 $
KM40 
35nm W 
240255Z AUTO 26003KT 10SM 16/16 A2995 RMK AO2
K1M4 
36nm N 
240256Z AUTO 00000KT 10SM BKN038 OVC050 15/13 A2995 RMK AO2 SLP158 T01500128 51015
KGTR 
41nm W 
240256Z AUTO 25005KT 10SM BKN023 OVC039 16/12 A2995 RMK AO2 SLP141 T01560122 51007
TAF
KTCL 
31nm S 
231835Z 2319/2418 20010KT P6SM VCSH SCT025 OVC050 FM240100 24003KT P6SM VCSH OVC050 FM240800 24003KT 6SM -DZ OVC025 FM241200 24004KT 4SM -DZ OVC007
KCBM 
32nm W 
240005Z 2400/2423 23009KT 9999 SCT030 BKN060 QNH2986INS BECMG 2403/2404 25006KT 9999 BKN010 OVC020 QNH2988INS BECMG 2407/2408 27006KT 8000 BR OVC005 QNH2989INS BECMG 2414/2415 30010G15KT 9999 NSW SCT010 OVC020 QNH2993INS TX21/2421Z TN13/2410Z LAST NO AMDS AFT 2400 NEXT 2409
NOTAMs
Click for the latest NOTAMs
NOTAMs are issued by the DoD/FAA and will open in a separate window not controlled by AirNav.

 

 
 

Would you like to see your business listed on this page?

 If your business provides an interesting product or service to pilots, flight crews, aircraft, or users of the Richard Arthur Field Airport, you should consider listing it here.  To start the listing process, click on the button below
 
Add a business
 

Other Pages about Richard Arthur Field Airport

Update a link
 
Copyright © AirNav, LLC. All rights reserved. Privacy Policy  Contact